[[{"header":{"parameterUnit":"m.s-1","parameterCategory":1,"la1":30.2991,"la2":30.254,"lo1":-89.0895,"lo2":-89.0444,"dy":0.0017,"dx":0.0017,"nx":28,"ny":28,"refTime":"2024-12-09T03:00:00:Z","depth":0,"parameterNumber":2,"parameterNumberName":"U-component_of_WINDS"},"data":[0,0,0,0,0,0,0,0,0,0,0,0,0,0,0,0,0,0,0,0,0,0,0,0,0,0,0,0,0,0,0,0,0,0,0,0,0,0,0,0,0,0,0,0,0,0,0,0,0,0,0,0,0,0,0,0,0,0,0.6619,0.6619,0,0.6674,0.6674,0.6675,0.6664,0.6663,0.6662,0.6661,0.6719,0.6721,0.6724,0,0,0,0,0,0,0,0,0,0,0,0,0,0.6505,0.6508,0.6619,0.6619,0.662,0.6674,0.6675,0.6675,0.6664,0.6663,0.6661,0.666,0.6718,0.6721,0.6724,0,0,0,0,0,0,0,0,0,0,0,0,0,0.6557,0.6508,0.6619,0.6621,0.6622,0.6674,0.6675,0.6675,0.6664,0.6663,0.6661,0.666,0.6717,0.6721,0.6724,0.6778,0,0,0.6736,0.6737,0,0,0,0,0,0,0,0,0.6554,0.6561,0.662,0.6621,0.6622,0.666,0.6656,0.671,0.6664,0.6648,0.6661,0.6659,0.6701,0.6706,0.6719,0.6781,0.6783,0.6736,0.6738,0.674,0.6741,0,0,0,0,0,0,0,0.6551,0.6559,0.6641,0.6621,0.6622,0.662,0.6625,0.6666,0.6682,0.6649,0.6649,0.6655,0.6701,0.6716,0.6721,0.6784,0.6736,0.6739,0.6742,0.6743,0.6893,0.6895,0,0,0,0,0,0,0.6546,0.6556,0.6639,0.6642,0.6583,0.6623,0.6629,0.6649,0.6682,0.6685,0.6656,0.6654,0.671,0.6716,0.6723,0.6789,0.674,0.6744,0.6746,0.6892,0.6894,0.6896,0,0,0,0,0,0,0.6543,0.6553,0.6637,0.6599,0.6609,0.6626,0.6649,0.6651,0.6666,0.6687,0.669,0.6669,0.6709,0.6717,0.6765,0.679,0.6745,0.6749,0.689,0.6892,0.6895,0.692,0,0,0,0,0,0,0.654,0.6553,0.6573,0.6599,0.6611,0.6677,0.6651,0.6654,0.6673,0.667,0.6699,0.6703,0.6709,0.6759,0.6768,0.6795,0.6752,0.6887,0.6891,0.6894,0.6917,0.6924,0.6929,0,0,0,0,0,0.6536,0.6578,0.6574,0.6584,0.6637,0.6679,0.6685,0.6691,0.6675,0.6696,0.6709,0.6702,0.6786,0.6764,0.6774,0.6802,0.6886,0.689,0.6894,0.6915,0.6922,0.6929,0,0,0,0,0,0,0.6555,0.6582,0.6577,0.6629,0.6651,0.6677,0.6703,0.6699,0.6727,0.6724,0.673,0.6736,0.6785,0.6798,0.6773,0.6856,0.6834,0.684,0.6846,0.6853,0.6859,0.6855,0.6755,0,0,0,0,0,0.6565,0.6596,0.6618,0.6661,0.6673,0.6686,0.6704,0.6706,0.673,0.674,0.6757,0.6781,0.6813,0.6834,0.6864,0.6919,0.6925,0.6943,0.6949,0.6953,0.6959,0.699,0.6998,0.6909,0.6909,0.6908,0,0,0.6586,0.6604,0.6624,0.6665,0.6683,0.6716,0.6694,0.6729,0.6754,0.6746,0.6791,0.6804,0.6831,0.6883,0.6906,0.6896,0.6985,0.6958,0.6962,0.6965,0.6995,0.7003,0.7011,0.6911,0.6911,0.691,0,0,0.6641,0.6658,0.6696,0.6714,0.6741,0.675,0.6759,0.6785,0.6793,0.6839,0.6833,0.6863,0.6917,0.6937,0.6954,0.7017,0.7012,0.7027,0.7057,0.7087,0.7094,0.7101,0.7124,0.7132,0.7032,0.7032,0.7032,0,0.6664,0.6713,0.6717,0.6753,0.6772,0.6765,0.6804,0.6822,0.6857,0.6871,0.6858,0.6926,0.6944,0.7,0.7016,0.7029,0.7041,0.7024,0.7093,0.7099,0.7105,0.7128,0.7136,0.7034,0.7034,0.7033,0.7033,0,0.674,0.6774,0.6802,0.6836,0.6858,0.6896,0.6906,0.6927,0.6928,0.6938,0.6985,0.7005,0.704,0.7053,0.7054,0.711,0.7103,0.7091,0.7069,0.7115,0.7137,0.7145,0.7036,0.7036,0.7035,0.7035,0,0,0.681,0.6845,0.6856,0.6871,0.6901,0.6927,0.6965,0.6998,0.7017,0.7042,0.7074,0.712,0.711,0.7129,0.7132,0.7158,0.7207,0.7144,0.7144,0.7156,0.7271,0.728,0.729,0.7204,0.7205,0.7206,0.7269,0,0.6868,0.6934,0.6939,0.6998,0.703,0.7024,0.7056,0.7078,0.7089,0.7117,0.7129,0.7162,0.7145,0.7157,0.7182,0.7196,0.7231,0.7191,0.7235,0.7236,0.7229,0.7301,0.7311,0.7369,0.7277,0.7279,0.728,0,0.6946,0.6973,0.7036,0.7061,0.7074,0.7103,0.7135,0.7162,0.7187,0.7193,0.7214,0.7213,0.7252,0.7227,0.7282,0.7255,0.7273,0.7282,0.7284,0.7289,0.7262,0.7309,0.7388,0.7397,0.7293,0.7292,0.7291,0,0.6991,0.7043,0.7088,0.7101,0.7131,0.7152,0.7166,0.7189,0.7209,0.7236,0.725,0.7281,0.7299,0.7324,0.7332,0.7313,0.7386,0.7361,0.7393,0.7392,0.7409,0.7408,0.7493,0.7419,0.7419,0.7419,0.7418,0,0.7057,0.7096,0.7108,0.7136,0.7179,0.7184,0.7227,0.724,0.7261,0.7291,0.7287,0.7316,0.7324,0.7354,0.736,0.7405,0.7412,0.7419,0.742,0.742,0.7419,0.7432,0.7429,0.7421,0.742,0.742,0.742,0,0.7116,0.7125,0.7173,0.7198,0.7205,0.7236,0.7258,0.7284,0.7294,0.7332,0.7341,0.7357,0.7392,0.7402,0.7444,0.7448,0.7501,0.7498,0.7493,0.7493,0.7524,0.7521,0.7621,0.7634,0.7551,0.7551,0.7552,0,0.7157,0.7187,0.7215,0.7235,0.7249,0.7281,0.7301,0.7307,0.7329,0.7359,0.7383,0.7417,0.7445,0.7502,0.7517,0.755,0.7548,0.7581,0.7553,0.7552,0.755,0.7549,0.7552,0.7587,0.7587,0.7588,0.7589,0,0.7231,0.7234,0.7263,0.7295,0.7319,0.7344,0.7368,0.7384,0.7394,0.7418,0.7454,0.7476,0.7519,0.7554,0.7587,0.7601,0.7597,0.7597,0.7606,0.7607,0.7602,0.7606,0.7508,0.7595,0.7594,0.7594,0.7594,0.7593,0.7283,0.7309,0.7333,0.7366,0.7385,0.7407,0.7434,0.7446,0.7476,0.7512,0.7513,0.7553,0.7577,0.7621,0.7637,0.7668,0.7658,0.7671,0.7675,0.7678,0.7681,0.7597,0.7674,0.7673,0.7673,0.7673,0.7673,0,0.7357,0.7372,0.7402,0.7436,0.7462,0.7455,0.7481,0.7503,0.7538,0.7561,0.7588,0.763,0.7663,0.7681,0.7715,0.7736,0.7735,0.7745,0.7744,0.7748,0.7687,0.7676,0.7745,0.7745,0.7745,0.7745,0.7745,0.7745,0.7398,0.7443,0.7449,0.7503,0.7518,0.7556,0.7572,0.7593,0.7611,0.7658,0.7686,0.7697,0.7718,0.7753,0.7784,0.7788,0.7801,0.7812,0.7815,0.7759,0.7752,0.7745,0.7735,0.7815,0.7815,0.7873,0.7874,0.7874]},{"header":{"parameterUnit":"m.s-1","parameterCategory":1,"la1":30.2991,"la2":30.254,"lo1":-89.0895,"lo2":-89.0444,"dy":0.0017,"dx":0.0017,"nx":28,"ny":28,"refTime":"2024-12-09T03:00:00:Z","depth":0,"parameterNumber":3,"parameterNumberName":"V-component_of_WINDS"},"data":[0,0,0,0,0,0,0,0,0,0,0,0,0,0,0,0,0,0,0,0,0,0,0,0,0,0,0,0,0,0,0,0,0,0,0,0,0,0,0,0,0,0,0,0,0,0,0,0,0,0,0,0,0,0,0,0,0,0,3.1871,3.1872,0,3.1991,3.1992,3.1994,3.2015,3.2014,3.2013,3.2012,3.2136,3.214,3.2145,0,0,0,0,0,0,0,0,0,0,0,0,0,3.1662,3.1665,3.1871,3.1872,3.1874,3.1991,3.1993,3.1994,3.2015,3.2014,3.2013,3.2012,3.2135,3.214,3.2145,0,0,0,0,0,0,0,0,0,0,0,0,0,3.1764,3.1667,3.1871,3.1899,3.1902,3.1991,3.1993,3.1995,3.2016,3.2014,3.2013,3.2011,3.2133,3.2139,3.2146,3.2215,0,0,3.2165,3.2168,0,0,0,0,0,0,0,0,3.1758,3.1772,3.1893,3.1897,3.1901,3.1987,3.1964,3.2068,3.2016,3.1973,3.2012,3.2011,3.2088,3.2098,3.2124,3.2221,3.2226,3.2166,3.217,3.2172,3.2174,0,0,0,0,0,0,0,3.1751,3.1767,3.1918,3.1895,3.19,3.1906,3.1919,3.1984,3.2037,3.1976,3.1978,3.1992,3.209,3.2118,3.2127,3.2228,3.2166,3.2171,3.2175,3.2178,3.2389,3.2391,0,0,0,0,0,0,3.1739,3.1761,3.1915,3.1922,3.1825,3.1911,3.1925,3.1961,3.2037,3.2047,3.1993,3.1993,3.2107,3.2119,3.2131,3.2219,3.2172,3.2178,3.2182,3.2388,3.239,3.2392,0,0,0,0,0,0,3.1734,3.1752,3.191,3.1842,3.1862,3.1916,3.1956,3.1964,3.1992,3.2049,3.2059,3.2012,3.2107,3.2122,3.2194,3.2223,3.2181,3.2187,3.2385,3.2388,3.2391,3.2393,0,0,0,0,0,0,3.1728,3.1751,3.1777,3.1842,3.1866,3.197,3.1957,3.1967,3.2002,3.2003,3.2069,3.2079,3.2107,3.2185,3.2201,3.2231,3.2192,3.2383,3.2387,3.239,3.239,3.2395,3.2399,0,0,0,0,0,3.1721,3.1773,3.1778,3.1797,3.19,3.1972,3.1986,3.2016,3.2005,3.2032,3.2069,3.2077,3.2217,3.2192,3.221,3.2243,3.2381,3.2386,3.239,3.2388,3.2394,3.2399,0,0,0,0,0,0,3.1709,3.1782,3.1789,3.1863,3.1911,3.1975,3.2011,3.2021,3.2074,3.2072,3.2108,3.2123,3.2194,3.2225,3.2196,3.2315,3.2299,3.2306,3.2291,3.2298,3.2302,3.2293,3.2197,0,0,0,0,0,3.1715,3.1767,3.1828,3.1888,3.1912,3.1957,3.1989,3.2009,3.206,3.2081,3.2123,3.2173,3.2229,3.2265,3.2319,3.2395,3.241,3.2426,3.2431,3.2434,3.2441,3.2485,3.2493,3.2405,3.2405,3.2405,0,0,3.1729,3.1775,3.1805,3.1887,3.1926,3.198,3.1974,3.2031,3.2071,3.209,3.2161,3.2194,3.2252,3.2326,3.2361,3.2355,3.2469,3.2439,3.2442,3.2447,3.249,3.2499,3.2506,3.2408,3.2407,3.2407,0,0,3.1781,3.182,3.1875,3.1915,3.1975,3.2005,3.2018,3.2081,3.2104,3.2175,3.2191,3.224,3.2334,3.2375,3.2409,3.2477,3.2487,3.2494,3.2518,3.256,3.2567,3.2574,3.26,3.2609,3.25,3.25,3.25,0,3.179,3.1871,3.1902,3.1959,3.1995,3.2014,3.207,3.2108,3.2182,3.2207,3.2199,3.2319,3.2359,3.2444,3.2461,3.2487,3.2504,3.2487,3.2564,3.2571,3.2577,3.2602,3.2612,3.2501,3.2501,3.2501,3.2501,0,3.188,3.1936,3.1973,3.2045,3.2086,3.2142,3.2182,3.2219,3.2235,3.2266,3.234,3.2389,3.2454,3.2476,3.2492,3.2564,3.2558,3.2556,3.2541,3.2585,3.261,3.262,3.2502,3.2501,3.2501,3.2501,0,0,3.1928,3.2017,3.2031,3.2064,3.2132,3.2177,3.2234,3.2298,3.233,3.238,3.2431,3.251,3.2509,3.2547,3.2568,3.2605,3.2659,3.2599,3.2601,3.261,3.2743,3.2745,3.2756,3.2665,3.2667,3.2668,3.2739,0,3.199,3.2093,3.2123,3.221,3.2264,3.2283,3.2333,3.2381,3.2411,3.2461,3.2495,3.2552,3.2546,3.2569,3.2606,3.2644,3.2686,3.2639,3.2713,3.2715,3.2699,3.2768,3.2771,3.2835,3.2748,3.275,3.2751,0,3.2075,3.2128,3.2221,3.2283,3.2307,3.2351,3.2413,3.246,3.2515,3.2534,3.2577,3.2595,3.2657,3.2638,3.2724,3.2692,3.2724,3.2747,3.275,3.2759,3.2737,3.2781,3.2855,3.2866,3.2766,3.2765,3.2764,0,3.2103,3.2198,3.2266,3.2293,3.2367,3.2399,3.2431,3.2484,3.2521,3.2575,3.2599,3.2659,3.2693,3.2739,3.2773,3.2756,3.2858,3.2841,3.2877,3.2876,3.2899,3.2897,3.2981,3.2917,3.2916,3.2916,3.2916,0,3.217,3.2226,3.2279,3.2321,3.2386,3.242,3.2482,3.2516,3.2563,3.2612,3.2632,3.2678,3.272,3.2772,3.2799,3.2867,3.2882,3.29,3.2907,3.29,3.2897,3.2922,3.2919,3.2919,3.2918,3.2918,3.2917,0,3.2212,3.225,3.2326,3.239,3.2407,3.2452,3.2507,3.2549,3.258,3.2643,3.2659,3.2709,3.2771,3.281,3.2888,3.2907,3.2983,3.2987,3.2964,3.2968,3.3003,3.2999,3.3106,3.3123,3.3046,3.3047,3.3047,0,3.2253,3.2297,3.2365,3.24,3.2433,3.2488,3.2526,3.2561,3.26,3.2666,3.27,3.2764,3.2816,3.2915,3.2959,3.3019,3.3026,3.306,3.3036,3.3027,3.3029,3.3027,3.3032,3.3064,3.3065,3.3065,3.3066,0,3.2321,3.2338,3.2391,3.2452,3.2497,3.2546,3.2595,3.2623,3.2667,3.2709,3.2773,3.2814,3.2895,3.2958,3.3023,3.3057,3.307,3.3073,3.3085,3.3078,3.3064,3.3074,3.2977,3.3071,3.307,3.307,3.3069,3.3069,3.2365,3.2406,3.2461,3.252,3.2561,3.2607,3.265,3.2687,3.2741,3.2809,3.2827,3.2894,3.2949,3.3037,3.3073,3.3126,3.3122,3.3138,3.3143,3.3147,3.3149,3.3054,3.3138,3.3138,3.3138,3.3138,3.3138,0,3.2436,3.2473,3.2527,3.2595,3.2642,3.2649,3.2704,3.2744,3.2803,3.2852,3.2904,3.2978,3.304,3.3088,3.3152,3.3186,3.3193,3.3201,3.32,3.3208,3.3148,3.3132,3.3194,3.3194,3.3194,3.3194,3.3194,3.3194,3.2479,3.2548,3.2571,3.2662,3.2698,3.2764,3.2795,3.2838,3.2878,3.296,3.3011,3.3042,3.3092,3.3159,3.3217,3.3229,3.3253,3.326,3.3274,3.3218,3.3212,3.3206,3.3191,3.3264,3.3264,3.3329,3.333,3.333]}]]